Location: Unspecified
(44.4377°N, 88.0525°W)
Time: 20:11:43
(UTC-05:00)

Cosmos 1674 - Visible Passes

Search period start: 04 September 2015 00:00
Search period end: 14 September 2015 00:00
Orbit: 506 x 529 km, 82.5° (Epoch: 03 September)

Date Brightness Start Highest point End Pass type
(mag) Time Alt. Az. Time Alt. Az. Time Alt. Az.
04 Sep 5.8 22:57:58 10° N 22:58:05 11° NNE 22:58:05 11° NNE visible
05 Sep 5.8 22:43:45 10° NNE 22:43:48 10° NNE 22:43:48 10° NNE visible
10 Sep 6.0 23:07:22 10° NNW 23:07:30 11° NNW 23:07:30 11° NNW visible
11 Sep 5.9 22:52:57 10° NNW 22:53:16 12° NNW 22:53:16 12° NNW visible
12 Sep 5.7 22:38:34 10° NNW 22:39:01 13° NNW 22:39:01 13° NNW visible
13 Sep 5.6 22:24:11 10° N 22:24:47 14° N 22:24:47 14° N visible
